ECMWFFLT2_850_spd_057.txt.gz
Wind_Speed
5 6 5 9 7 3 2 0 4 5 5 3 1 4 6 4 3 2 3 4 4 5 6 8 9 13 18 17 14 28 33 35 37 36 39 43 43 44 46 46 47 48 48 47 47 47 47 48 48 47 47 47 47 47 48 48 48 49 49 48 47 45 44
15 23 18 3 10 5 2 1 4 3 4 4 0 0 3 3 2 2 3 6 4 3 4 7 10 11 14 15 10 16 27 32 34 36 42 45 46 47 46 46 47 48 49 49 48 48 48 49 51 50 49 48 48 48 48 48 48 50 50 49 48 47 46
17 21 16 5 4 6 5 3 5 1 2 2 2 0 2 1 2 3 4 8 5 3 4 7 12 11 10 12 11 13 22 28 31 34 40 45 46 45 44 44 45 46 48 50 50 50 49 49 51 52 50 48 48 48 48 48 48 48 49 48 48 48 48
14 11 6 4 2 1 2 6 5 1 3 2 1 2 2 1 2 3 3 5 5 4 4 5 9 11 10 11 11 12 19 28 34 34 37 42 42 42 42 44 45 47 48 50 52 52 52 51 50 50 50 49 48 49 48 48 48 47 48 48 47 48 49
10 5 3 7 8 6 6 6 5 3 1 1 1 2 3 2 3 3 3 4 5 6 5 3 5 7 11 12 8 8 16 30 39 39 39 41 41 42 44 44 46 48 49 50 52 53 52 51 50 50 50 50 49 49 49 48 47 47 48 48 47 47 49
5 7 11 14 13 10 6 4 4 5 4 3 3 3 3 3 1 2 3 3 6 7 3 7 11 11 8 12 9 4 9 27 41 42 42 44 43 43 45 46 48 49 49 49 50 51 50 49 49 50 50 50 48 48 48 48 47 48 48 48 47 46 48
7 12 16 17 15 12 9 7 5 5 4 3 3 3 3 2 2 3 1 2 7 7 7 11 11 19 18 6 10 8 7 22 43 46 45 48 47 46 46 45 47 49 49 49 49 49 49 49 49 50 50 51 49 47 46 47 47 48 48 49 48 46 46
8 10 11 12 10 8 8 7 6 6 6 6 4 3 3 2 1 3 1 2 7 4 11 14 13 23 27 19 10 6 4 10 31 42 45 48 48 48 48 45 46 47 46 47 48 48 49 48 48 49 49 50 50 47 46 47 48 48 48 48 48 47 46
6 6 5 6 7 8 6 7 9 11 12 12 8 5 6 4 3 5 3 3 6 5 13 16 16 20 19 22 30 25 20 18 13 7 21 42 49 47 46 44 43 45 45 45 46 47 49 49 49 50 50 51 51 49 47 47 48 48 47 48 48 47 47
3 4 2 3 6 8 6 9 15 14 14 15 9 4 4 4 5 7 2 4 6 10 16 16 16 17 14 18 28 30 30 32 34 35 17 28 45 44 47 48 44 42 43 45 46 47 49 48 48 49 50 51 52 52 51 49 48 47 47 46 46 46 45
5 6 7 7 8 9 9 13 18 16 13 12 7 3 3 3 7 5 2 3 10 13 15 14 13 15 14 15 19 24 29 31 33 40 36 22 17 17 27 38 46 47 45 45 46 47 49 49 49 50 50 51 52 52 53 52 50 48 47 46 45 44 43
8 9 14 15 12 11 12 14 16 16 14 11 7 4 4 5 7 5 2 7 11 11 11 11 11 13 11 12 16 21 26 29 31 35 37 37 34 24 15 8 21 40 45 47 49 48 48 48 48 49 48 48 51 53 54 54 52 50 49 47 45 44 43
11 11 14 16 13 12 13 13 14 16 16 14 9 8 7 5 5 7 7 11 11 10 10 8 9 11 11 14 18 23 27 29 31 34 35 37 36 30 30 31 15 11 21 32 42 46 48 48 48 48 48 47 48 51 53 53 52 52 49 47 47 45 44
13 13 12 14 15 14 13 14 13 14 16 17 13 11 9 7 9 12 10 10 9 6 4 6 10 13 13 17 21 25 29 30 30 32 32 33 33 32 32 32 26 19 13 6 17 25 32 37 39 41 44 46 47 49 52 51 50 50 48 47 47 47 46
10 13 13 13 14 14 15 15 13 13 16 17 13 10 8 6 9 12 10 8 6 3 2 4 10 14 13 16 20 22 27 29 29 30 31 31 30 30 31 30 27 26 23 16 8 8 12 19 26 29 32 37 42 44 47 48 46 46 46 47 47 47 48
7 9 12 13 13 14 15 15 14 13 14 14 12 9 7 6 8 10 10 6 4 4 6 8 12 14 14 15 18 21 25 28 29 28 29 30 30 30 30 30 28 25 24 20 15 11 6 5 15 23 26 29 35 38 39 39 37 36 38 42 45 47 47
6 8 10 12 12 11 10 10 10 10 10 12 12 10 9 9 8 7 6 4 4 6 8 10 12 13 13 15 18 22 24 26 28 27 27 28 29 29 29 29 29 26 21 17 15 14 12 10 3 12 22 27 32 36 37 37 36 33 30 32 37 42 47
5 7 8 9 8 6 7 5 3 5 6 7 8 8 8 8 6 5 5 6 7 7 7 6 8 9 11 16 21 24 25 25 26 26 27 28 29 29 28 27 27 25 20 15 13 11 7 9 10 3 13 23 30 36 38 38 39 38 34 32 33 36 44
4 5 4 5 5 6 8 6 6 8 7 8 9 8 6 11 11 9 9 9 8 9 10 10 11 10 10 18 25 26 25 27 26 25 27 29 29 29 29 28 26 24 22 18 14 11 9 5 6 7 5 10 19 30 35 35 35 37 37 39 40 39 43
4 3 2 4 4 6 9 8 7 8 6 8 9 6 6 12 12 10 10 9 9 12 14 16 19 17 8 15 24 27 26 27 27 25 26 28 28 28 28 28 27 26 25 22 18 14 11 8 4 2 5 4 4 13 23 28 30 34 37 41 45 44 44
3 4 3 4 6 8 8 5 4 7 6 6 6 3 3 9 11 11 9 9 11 13 15 19 24 21 8 7 16 26 29 28 28 25 24 25 26 27 27 26 26 27 25 23 21 17 13 10 9 7 7 10 7 6 12 21 29 34 36 40 45 46 43
4 4 4 3 6 6 3 1 3 8 11 9 5 2 1 5 12 15 12 9 12 14 14 19 23 17 5 2 10 24 30 29 29 28 26 26 27 29 29 28 28 29 26 24 23 20 18 14 11 11 10 16 17 12 10 16 26 34 37 38 44 46 45
3 5 4 4 5 3 1 3 7 12 13 11 7 3 2 4 11 16 14 12 15 16 16 18 17 10 3 1 9 23 28 26 28 29 27 26 27 30 31 30 31 31 29 27 25 23 22 19 15 14 11 15 21 21 18 17 21 29 37 40 42 46 47
6 6 5 4 3 0 3 6 13 18 17 11 6 3 1 5 11 13 12 12 15 17 18 16 10 5 4 6 14 23 24 22 25 27 26 26 28 31 32 32 32 32 31 29 28 26 25 23 19 17 15 15 21 25 25 24 22 24 33 41 43 44 46
7 8 6 3 2 1 2 7 16 20 15 5 2 2 2 8 12 12 12 11 12 14 16 14 9 8 11 14 19 22 21 21 24 25 25 26 27 29 32 32 32 34 33 31 30 28 26 25 23 20 18 18 21 24 26 29 30 28 29 35 42 44 44
4 5 5 4 3 2 3 9 13 12 6 2 2 5 9 12 13 14 13 12 11 12 13 13 14 16 18 19 20 20 20 21 23 24 26 27 27 29 31 30 32 35 35 33 32 30 28 27 25 23 22 22 23 25 26 30 34 33 30 30 36 42 45
2 2 4 4 3 1 8 12 8 4 2 2 5 10 12 13 14 15 15 14 13 13 14 15 17 20 21 20 20 20 21 20 20 22 25 27 29 30 31 30 31 34 36 35 34 33 32 30 27 25 24 25 25 27 29 30 31 32 32 31 34 40 45
2 2 2 2 3 4 9 9 4 2 5 6 8 12 13 13 15 15 15 15 15 16 17 18 19 21 22 21 20 21 22 22 21 20 21 24 28 30 29 29 30 33 35 35 34 34 33 31 29 26 25 27 28 30 31 30 28 29 31 31 34 41 47
2 4 3 3 6 8 10 7 3 5 8 8 9 12 13 14 15 15 16 17 18 18 19 19 20 21 21 21 21 22 23 23 22 20 19 20 25 28 27 28 29 31 34 35 35 34 33 31 29 27 26 27 30 32 32 29 28 29 29 29 33 43 50
3 6 4 2 6 11 12 7 3 6 9 10 12 14 14 16 17 17 18 19 19 20 20 20 21 21 21 22 22 22 24 24 22 21 20 19 22 25 25 27 29 31 33 34 34 34 33 31 30 28 27 27 29 32 32 30 28 29 29 28 32 43 53
1 3 2 2 8 12 10 5 6 9 11 12 14 15 16 18 19 19 19 20 20 21 21 21 22 22 21 21 23 24 24 24 21 21 21 20 21 22 23 25 28 30 32 33 34 35 34 32 30 30 28 27 27 28 29 29 28 28 30 30 32 42 52
3 5 4 7 14 14 6 4 10 13 13 14 17 18 19 20 20 20 20 20 20 21 21 21 23 23 22 22 23 25 25 23 21 21 21 21 21 22 21 23 26 29 30 32 34 34 33 31 29 29 29 26 25 25 26 27 26 26 29 29 32 42 52
5 6 5 9 13 9 5 7 15 15 15 18 19 19 20 21 20 21 21 20 20 21 22 23 23 24 24 23 23 25 27 25 22 22 22 21 21 22 21 21 24 27 29 30 32 33 31 29 25 24 26 24 23 24 25 23 23 24 26 28 33 43 52
3 3 4 6 5 5 7 13 17 17 18 20 19 19 21 20 20 21 22 22 22 21 22 23 24 25 26 25 25 27 28 27 24 22 22 21 21 22 22 20 22 25 26 26 30 31 30 28 23 21 21 21 21 23 24 24 22 22 22 28 36 45 50
4 6 8 6 5 8 12 15 17 18 19 19 18 19 21 20 21 22 22 23 24 23 23 23 23 25 26 26 27 28 29 28 25 21 21 21 22 22 22 21 22 24 24 24 27 30 31 30 25 20 19 19 18 20 23 25 24 20 19 26 37 44 46
7 10 11 8 7 10 13 15 16 16 16 16 18 20 21 21 22 22 22 24 25 24 25 25 24 25 26 26 27 29 30 29 24 20 20 21 21 22 22 20 22 24 22 23 26 29 32 32 28 23 20 17 15 17 20 23 24 21 19 22 31 40 44
9 11 10 10 11 13 14 15 15 15 15 17 20 21 21 21 22 22 22 24 24 24 25 26 25 24 25 26 27 28 29 28 24 20 20 21 21 23 21 19 20 22 22 22 24 28 32 34 31 26 21 17 14 16 18 22 24 23 21 22 25 32 40

ECMWFFLT2_850_spd_060.txt.gz
Wind_Speed
7 14 14 6 3 1 3 3 2 5 4 6 3 2 1 4 3 3 1 1 4 4 6 8 7 10 11 16 24 27 31 34 31 31 36 39 40 43 45 47 51 52 52 50 49 50 52 52 52 53 53 54 53 51 49 47 46 47 48 48 47 45 44
12 23 16 5 10 9 3 1 4 5 1 4 4 0 1 3 3 3 1 2 3 4 4 7 8 9 9 5 11 19 24 27 29 32 38 42 43 45 47 49 50 51 52 52 50 50 52 53 53 54 54 53 53 51 49 48 48 48 49 49 49 47 46
11 19 13 6 13 15 6 2 6 1 3 1 1 2 2 2 2 3 3 1 2 2 2 9 13 12 13 13 8 15 18 20 27 33 37 42 43 42 42 44 45 46 50 52 51 50 51 53 53 54 53 53 52 51 50 48 47 47 48 48 49 49 48
6 8 7 4 9 13 9 6 6 3 2 2 0 2 4 3 3 2 3 2 2 2 4 9 14 14 15 17 13 9 17 22 29 34 38 40 41 40 41 41 43 46 49 51 52 51 51 53 53 53 53 52 51 51 50 49 47 46 47 48 49 50 50
4 3 5 4 4 7 7 8 7 6 3 0 0 1 2 3 3 3 2 1 2 3 4 7 13 15 14 17 18 10 15 28 34 36 38 41 41 42 42 42 44 46 48 50 51 51 50 51 52 52 52 51 51 51 50 50 49 48 48 48 49 50 50
2 2 2 5 5 4 2 6 6 6 5 3 2 3 3 1 2 3 5 3 2 4 5 5 10 12 14 18 21 17 10 15 31 38 40 42 43 43 44 44 46 46 47 49 50 50 49 49 50 50 50 51 51 51 51 50 50 50 49 49 49 50 50
4 5 5 2 5 3 7 9 7 6 6 5 2 2 4 4 2 2 1 3 3 3 6 6 8 12 17 24 25 23 26 21 5 24 36 41 43 45 46 46 47 48 47 48 48 49 49 48 49 50 50 51 51 51 51 50 50 50 50 49 48 49 49
5 6 3 4 8 8 7 7 8 7 6 6 3 2 1 2 2 3 2 1 2 5 9 8 11 16 20 27 31 29 31 35 29 11 14 32 40 43 44 46 47 46 45 45 45 46 46 47 48 49 50 51 51 51 50 50 51 50 50 49 49 49 49
6 5 4 4 6 7 4 3 6 8 8 10 7 3 3 2 1 3 0 2 3 6 9 10 12 15 17 23 31 32 32 35 37 35 17 8 24 30 35 41 44 42 41 42 44 46 47 47 47 49 50 50 50 50 50 50 50 50 50 50 49 50 49
2 3 3 4 5 6 3 2 5 8 10 11 7 4 4 2 2 4 1 3 4 8 10 12 11 11 13 19 26 30 32 35 36 39 36 22 8 5 13 21 28 33 37 41 44 47 48 48 48 48 50 51 50 50 50 50 49 49 49 50 50 50 50
3 4 4 4 6 7 8 8 7 6 7 8 5 2 2 2 4 5 3 1 7 11 11 12 12 11 10 12 20 26 29 33 35 36 36 34 30 23 15 9 7 15 23 31 38 44 48 49 50 49 50 51 51 51 51 49 49 48 48 49 49 49 49
3 3 5 7 8 8 10 13 11 7 6 6 5 3 4 5 5 5 5 3 8 10 9 10 10 10 8 8 14 21 25 28 31 34 35 36 37 35 30 24 17 11 6 9 20 31 38 42 46 49 49 51 52 52 51 50 48 48 48 48 48 49 49
5 5 7 9 9 9 8 11 13 11 7 5 3 4 7 7 4 6 7 6 6 6 7 8 9 9 9 9 12 18 25 26 27 33 36 35 36 36 35 32 28 23 18 12 6 10 20 27 33 38 41 45 47 49 49 49 48 47 47 47 48 48 49
5 5 6 8 9 10 9 9 12 13 11 7 5 5 8 9 8 8 7 6 4 3 5 6 8 12 12 13 16 20 25 25 25 30 33 32 33 34 34 32 30 28 24 20 17 11 9 13 19 24 28 33 38 42 44 44 45 45 45 46 47 48 49
5 5 5 7 7 9 10 10 9 11 13 11 6 5 6 6 8 8 7 4 2 4 8 9 11 15 16 17 19 20 22 22 23 26 28 29 30 32 33 33 31 30 27 23 20 17 12 9 9 15 21 25 30 35 38 40 40 40 41 43 45 46 48
4 4 6 8 8 9 11 10 7 8 10 9 6 3 2 3 4 5 5 3 2 5 10 11 12 15 16 17 18 20 21 22 23 25 26 27 28 30 32 34 34 33 31 27 23 19 14 12 9 7 13 19 24 30 35 38 38 38 39 42 44 45 47
2 2 4 7 7 7 7 5 3 4 4 5 5 3 5 5 2 0 1 1 3 6 9 9 10 12 12 13 17 21 23 23 24 25 26 25 25 27 30 33 35 35 33 30 26 21 16 12 11 8 4 10 17 24 30 34 38 41 43 44 45 46 46
1 0 3 5 4 4 5 2 2 3 3 6 5 3 5 6 4 2 1 3 5 7 7 7 8 9 9 13 17 20 22 25 25 24 25 24 24 26 28 31 34 34 33 30 27 23 18 14 10 8 6 6 11 19 26 30 35 41 45 46 47 46 45
2 2 4 3 3 5 4 1 3 3 4 5 4 4 5 6 6 5 5 6 7 9 11 10 10 10 7 11 19 22 21 22 24 24 25 25 24 26 28 30 31 31 31 30 28 25 21 19 14 7 4 7 9 16 23 28 32 38 43 45 47 48 47
1 2 3 2 5 5 7 5 2 3 4 4 3 3 3 4 5 4 4 5 8 12 17 16 16 17 9 3 14 25 24 22 23 24 24 25 26 26 27 28 29 30 30 29 29 28 25 24 20 10 2 5 8 13 20 25 27 31 37 42 45 46 48
2 3 3 4 6 8 8 5 1 3 4 4 2 0 1 2 5 6 4 5 8 12 17 21 24 26 13 5 4 21 27 24 23 23 23 25 27 28 27 27 28 29 29 28 28 28 27 26 24 15 4 2 5 10 17 22 23 23 29 37 42 45 46
2 3 3 3 5 6 4 2 2 6 8 8 4 2 2 1 7 9 6 5 8 10 14 19 23 21 10 4 2 19 28 27 25 25 25 26 28 27 26 27 28 28 28 28 28 28 26 25 24 20 10 5 8 9 13 19 21 20 22 29 35 41 45
1 3 3 4 6 5 3 2 3 8 12 10 5 2 1 1 7 11 8 7 10 10 11 16 16 11 4 2 7 21 29 28 26 25 25 26 28 27 25 24 26 27 28 28 27 27 26 24 24 23 17 11 11 13 13 16 20 21 22 24 26 30 36
4 4 4 4 4 3 1 2 6 10 10 7 2 1 2 2 8 11 10 10 12 12 13 12 8 3 3 7 16 26 30 27 25 25 25 25 27 27 25 23 23 25 27 27 27 27 28 27 25 25 22 19 16 16 16 18 21 22 23 24 24 24 25
6 6 5 4 4 2 1 6 11 11 6 3 1 3 2 5 8 9 9 11 12 13 15 12 6 6 10 17 24 29 29 26 25 25 24 24 24 25 25 24 22 23 24 25 26 26 26 27 27 26 25 24 23 21 19 21 23 24 25 26 26 25 24
4 4 4 5 4 0 4 11 12 7 2 2 2 3 6 9 10 9 9 10 11 14 17 16 14 16 19 22 27 28 28 27 26 25 25 25 24 24 25 24 22 22 23 23 25 24 24 26 28 28 28 27 27 26 23 21 23 25 27 28 28 27 26
2 2 3 4 3 2 8 10 6 2 0 2 6 10 10 9 10 10 11 11 12 15 18 20 21 22 22 24 26 28 28 27 26 27 27 26 24 25 27 26 24 22 22 23 23 23 24 25 26 28 29 29 29 29 27 24 23 25 28 29 29 29 29
2 2 3 3 3 4 7 6 3 3 4 5 8 11 11 11 12 12 13 14 13 15 19 22 24 25 25 25 26 27 29 28 27 28 29 27 25 25 27 28 27 24 23 23 23 22 22 23 24 26 29 31 32 31 29 27 25 25 27 29 30 31 31
3 4 6 5 5 7 7 6 8 9 7 6 8 10 12 14 15 14 16 17 16 17 20 23 24 25 26 26 26 27 28 29 29 30 30 28 26 25 26 28 28 26 24 23 23 22 21 21 22 25 27 30 33 33 32 30 28 26 26 27 29 31 32
4 8 13 13 9 8 7 7 7 7 7 9 11 13 14 16 17 18 19 19 19 18 19 21 24 24 25 26 27 27 28 30 30 31 31 30 28 27 27 27 28 27 26 24 23 23 21 21 22 24 26 28 31 32 32 30 28 26 25 25 27 30 32
2 4 7 7 4 7 12 10 7 6 9 12 13 15 18 20 20 20 19 19 19 20 19 21 23 25 25 26 29 30 29 30 30 30 31 31 31 29 27 26 27 28 28 26 25 24 22 22 22 23 25 27 28 29 29 27 25 24 23 24 26 29 30
3 5 8 8 8 13 13 8 6 9 13 16 18 19 20 21 21 20 20 19 20 20 21 22 24 27 27 26 29 31 31 30 31 31 31 32 33 31 28 26 26 28 28 27 26 25 23 22 22 23 25 26 27 27 28 26 24 22 21 23 26 28 28
4 7 9 9 10 12 9 8 9 15 17 18 21 21 21 20 20 21 22 22 22 22 22 23 25 28 29 27 27 30 32 32 32 32 31 32 32 31 29 26 25 27 28 27 25 25 23 22 22 23 24 26 26 26 27 27 25 22 21 23 25 26 27
4 5 5 5 5 7 10 13 16 18 18 19 20 20 20 20 21 23 25 26 25 24 24 24 25 28 30 28 28 30 33 34 33 32 30 31 31 30 27 25 24 26 27 26 25 25 22 20 21 22 23 25 26 26 26 27 26 24 23 24 25 25 25
6 9 9 9 8 11 15 17 18 18 18 18 18 19 21 22 24 26 26 27 27 26 25 25 25 28 30 29 29 31 34 34 33 31 30 29 30 29 26 23 23 25 26 26 25 24 22 20 21 22 23 24 25 25 26 26 26 26 25 25 25 24 22
10 12 12 11 11 14 16 18 18 18 17 17 18 20 22 24 26 27 27 26 26 26 26 26 26 28 30 30 30 31 33 33 32 32 30 28 27 27 24 22 23 26 27 27 26 24 22 20 21 22 22 23 24 24 24 26 27 27 27 26 26 25 22
12 13 12 11 13 15 15 16 17 17 16 17 19 21 24 26 27 27 26 26 26 26 27 29 28 28 29 30 30 30 32 32 31 30 30 28 26 24 23 23 23 25 26 27 26 24 22 21 20 21 21 22 22 21 21 23 26 27 27 26 26 26 23

ECMWFFLT2_850_spd_063.txt.gz
Wind_Speed
6 9 8 3 6 2 2 3 2 2 2 3 4 1 1 4 4 1 1 0 4 2 2 12 16 15 17 19 22 22 22 17 16 27 30 35 40 41 42 45 46 47 47 47 48 50 50 50 51 52 52 52 52 51 49 47 45 44 42 42 42 41 38
9 15 8 2 11 7 2 2 3 4 1 3 4 1 2 5 2 2 1 4 4 4 2 8 14 17 18 18 18 19 24 24 12 24 31 34 39 43 44 45 46 45 45 47 47 49 50 51 52 53 53 53 52 51 50 48 47 46 44 43 42 42 41
8 15 8 2 12 13 3 3 3 3 3 2 1 2 2 2 2 2 2 4 3 3 3 7 12 14 15 16 16 17 21 25 22 17 27 35 36 39 42 42 43 44 44 47 49 49 50 50 51 52 52 52 52 52 51 49 48 47 45 44 43 43 43
5 7 7 3 8 10 6 4 5 4 2 2 1 2 3 2 3 3 1 3 2 2 5 7 9 10 12 14 14 14 18 25 29 26 17 31 36 37 41 42 43 45 47 47 49 50 50 50 50 50 50 51 52 52 51 51 49 48 47 45 44 43 43
4 2 4 4 4 5 7 7 7 6 4 2 2 1 1 3 3 3 3 2 2 3 5 7 8 9 9 12 11 12 20 27 31 36 25 18 36 39 41 44 44 46 47 47 48 49 48 48 48 48 49 50 51 51 51 52 51 50 49 47 46 45 43
4 1 4 5 5 6 7 6 5 5 5 3 3 2 2 2 3 2 4 4 3 4 4 5 6 7 7 11 13 12 21 31 33 39 39 15 23 36 39 42 44 44 46 47 47 47 46 46 46 47 48 49 50 51 51 52 51 51 51 49 47 46 44
1 2 3 8 7 6 8 8 6 4 5 5 2 1 3 4 3 1 3 4 3 4 3 5 5 6 8 13 16 16 21 30 35 39 43 34 9 15 25 30 32 36 41 43 44 45 45 45 46 47 48 49 50 51 51 51 51 52 51 50 48 46 45
4 3 1 6 10 7 6 7 7 6 5 4 1 3 0 2 4 4 2 3 2 4 4 7 8 8 10 15 18 18 22 28 35 40 42 42 34 17 4 10 16 22 28 33 37 41 44 45 45 46 48 49 50 51 51 51 52 52 51 50 49 48 46
4 4 4 5 8 8 4 4 6 6 8 8 4 0 2 3 3 3 1 3 3 5 5 7 10 10 10 15 18 19 22 26 32 38 40 41 41 36 26 14 6 8 12 19 27 34 40 44 45 46 47 48 49 50 50 51 51 51 50 50 49 49 47
2 1 1 3 4 5 3 4 6 6 8 10 5 2 3 2 2 3 2 2 5 7 7 9 12 11 11 15 20 21 23 25 28 34 38 39 41 41 37 30 20 12 7 8 15 22 29 35 39 42 45 46 47 48 49 50 50 50 50 50 49 49 48
3 4 3 3 3 3 3 5 7 6 6 6 4 3 2 0 3 3 2 1 6 9 10 12 12 13 13 15 19 22 24 25 25 29 34 35 39 41 40 38 32 24 17 10 5 11 18 23 28 32 37 42 44 45 46 47 48 48 48 48 49 49 48
3 4 4 4 2 1 3 4 6 5 6 6 4 2 1 1 3 3 4 1 5 8 10 12 11 11 11 13 18 20 21 23 23 27 33 35 37 41 43 42 39 34 28 21 13 6 7 13 19 24 28 34 38 41 43 44 44 45 46 46 48 48 48
1 2 3 3 2 1 2 3 4 5 6 5 2 3 4 2 2 4 6 4 4 5 9 10 10 11 11 13 17 18 20 22 23 27 33 33 34 37 40 41 41 39 35 30 23 15 7 5 12 17 21 25 30 35 40 41 41 42 43 44 46 47 48
1 2 3 3 4 4 3 2 3 3 4 5 5 5 6 5 5 7 7 4 1 3 8 8 9 13 13 14 17 21 23 24 23 26 29 30 33 35 37 38 38 38 38 35 30 23 15 8 3 9 13 18 23 29 34 38 39 40 41 42 44 45 47
3 3 2 4 4 4 4 3 5 5 5 6 5 5 6 5 6 5 3 2 2 3 8 10 11 13 15 16 19 22 23 23 24 25 26 29 33 35 35 36 35 35 35 36 34 30 25 18 10 1 6 12 17 23 28 32 36 38 39 41 43 44 46
4 4 5 7 6 4 3 2 3 2 2 2 2 2 2 2 4 4 2 1 1 4 9 10 12 13 14 16 18 20 21 23 24 24 25 29 33 34 33 33 33 32 32 34 35 33 31 26 19 11 3 5 12 19 24 28 31 35 39 41 42 44 45
4 5 6 8 8 6 2 1 1 2 2 0 1 2 3 3 1 2 1 1 0 4 7 7 9 11 12 14 16 19 21 23 23 23 24 28 31 32 31 30 31 30 29 29 31 32 32 31 26 20 12 5 5 13 21 26 28 32 37 40 41 42 43
3 6 6 6 6 4 3 3 0 3 2 2 2 1 2 3 3 1 2 1 3 4 5 5 7 8 8 11 15 19 21 22 23 23 23 26 29 30 29 28 29 28 27 26 27 28 29 30 28 25 19 12 5 6 15 23 27 29 34 38 39 40 41
2 4 6 5 3 4 4 5 4 3 3 3 3 1 2 2 3 3 3 3 4 4 6 6 8 10 6 6 12 19 22 22 23 24 24 25 26 28 27 27 27 27 26 25 26 26 26 28 28 27 24 18 11 6 9 18 23 27 30 34 36 37 39
0 2 2 1 4 5 7 8 6 2 3 3 3 0 3 3 2 2 1 2 3 6 9 8 9 13 10 2 4 14 20 22 22 23 24 24 24 24 25 25 25 26 25 24 24 24 24 25 26 27 25 22 18 14 6 11 17 23 28 31 33 34 35
1 1 2 2 4 7 7 5 3 2 3 2 1 2 4 3 1 0 1 1 3 5 9 12 15 16 9 5 4 7 19 23 22 20 20 21 21 23 23 22 22 24 24 22 21 21 21 21 23 25 25 23 22 20 12 7 12 18 23 28 31 32 32
2 2 2 3 3 4 4 3 3 6 7 5 3 2 4 3 1 2 1 2 4 5 7 13 17 14 5 4 4 10 21 25 24 23 20 19 20 22 22 22 22 21 22 22 21 20 19 19 18 21 24 24 23 23 18 9 8 12 16 20 25 30 32
1 2 2 2 3 4 4 3 5 9 11 9 5 3 2 1 3 6 4 4 6 6 6 11 13 9 2 2 5 15 23 25 25 25 23 20 20 21 21 21 21 21 22 22 20 19 19 19 18 19 22 24 24 24 22 15 9 10 12 15 19 23 28
2 3 3 3 2 3 4 4 7 10 9 7 4 2 2 4 8 9 7 7 8 7 7 8 7 3 2 6 12 21 25 25 24 25 24 22 21 22 21 19 19 21 22 21 21 20 20 19 18 18 20 23 24 24 23 19 12 11 13 14 16 19 22
4 4 3 4 3 3 3 4 9 10 6 2 1 3 1 5 9 9 7 8 10 9 9 7 3 4 8 14 20 24 25 25 25 24 23 23 22 22 21 19 19 21 22 21 20 20 19 19 18 17 19 22 24 24 24 21 18 15 14 15 17 19 21
2 3 2 4 4 3 2 4 7 5 0 2 3 4 6 6 6 7 7 8 10 12 13 11 9 12 16 19 23 24 24 26 27 25 24 25 25 23 21 19 19 21 23 22 20 19 18 19 18 17 18 19 22 24 23 22 21 19 16 16 18 21 22
2 2 3 4 3 2 1 4 3 2 3 2 6 10 10 8 7 9 10 11 12 15 17 18 17 17 18 20 23 23 23 24 27 28 27 27 28 26 23 21 21 22 23 23 22 20 19 18 18 18 18 19 20 22 23 22 21 21 19 18 17 20 23
3 3 4 4 3 4 2 0 2 5 7 9 9 10 11 11 11 12 14 15 16 16 19 22 23 21 19 20 22 24 24 24 26 29 30 30 30 29 26 23 22 22 23 24 24 22 20 18 18 18 19 20 20 21 22 22 22 22 21 20 19 19 20
3 4 7 6 4 3 3 5 7 9 11 10 9 10 12 14 15 16 18 19 19 18 19 22 25 25 21 20 22 24 26 27 27 29 32 33 32 32 29 26 24 23 24 25 25 25 22 19 18 18 18 20 21 21 21 22 22 22 22 23 23 21 19
3 7 12 13 12 14 12 9 9 9 11 12 12 13 15 17 19 20 21 21 21 19 19 22 26 28 26 24 24 26 28 30 29 30 32 34 34 34 32 30 27 25 25 25 25 26 23 19 18 18 17 18 21 22 21 21 22 22 22 23 25 25 22
2 4 7 7 7 10 9 8 11 13 14 15 15 16 18 21 22 23 23 23 21 20 20 22 26 30 30 28 28 28 29 31 32 31 32 34 36 36 34 33 30 27 25 25 25 26 25 20 18 19 17 17 20 22 21 21 21 22 23 23 26 27 25
4 5 9 9 9 10 11 14 17 17 16 16 16 17 20 23 23 24 24 24 23 23 24 24 27 32 34 32 31 30 31 32 33 33 33 35 37 38 37 35 32 28 25 24 23 24 24 21 19 20 20 18 19 21 22 21 21 24 24 25 27 28 27
4 7 12 14 12 13 15 17 16 15 14 16 17 18 21 23 23 24 25 25 26 27 28 28 29 33 36 35 32 32 32 33 34 34 34 35 38 39 38 36 32 28 25 23 22 23 23 21 20 21 21 20 20 21 21 21 21 24 26 26 28 29 27
3 7 10 10 6 7 11 13 13 14 14 16 18 20 21 22 23 25 27 28 29 30 31 31 30 33 36 36 33 33 33 33 34 34 33 35 37 38 37 35 31 28 24 22 21 21 21 20 20 21 21 21 21 20 20 21 21 22 25 27 29 30 28
8 13 16 13 10 11 14 14 14 14 14 16 19 20 21 22 23 25 27 30 32 34 35 34 31 32 34 35 34 34 35 34 34 35 34 35 36 36 35 32 30 27 23 21 20 20 20 20 21 21 21 21 22 21 19 20 20 21 23 26 28 29 29
15 19 19 14 13 15 17 16 15 14 14 16 19 20 21 22 23 25 27 30 34 36 37 35 33 32 33 35 35 36 37 36 35 35 35 34 33 33 32 30 29 26 22 21 20 20 19 19 21 21 21 21 22 21 19 18 18 20 22 26 28 28 28
20 22 20 16 16 17 16 15 15 14 14 16 18 19 20 22 23 25 27 30 32 34 35 36 35 34 33 34 35 35 36 35 34 34 34 33 31 30 31 31 29 26 23 21 20 19 19 20 20 21 22 21 21 20 18 17 16 18 21 25 26 26 26

ECMWFFLT2_850_spd_069.txt.gz
Wind_Speed
4 6 2 1 1 2 4 5 6 3 0 0 1 2 2 0 5 4 2 4 6 5 5 7 10 11 14 17 20 22 22 21 20 21 20 19 14 7 8 15 21 29 35 38 38 39 40 41 41 41 41 39 38 37 36 35 33 32 30 28 27 27 27
5 9 1 4 8 4 3 5 5 3 2 1 1 3 3 5 7 3 3 6 5 3 2 6 10 12 14 15 16 19 21 21 21 21 21 21 20 13 7 13 17 21 29 36 38 38 39 40 41 41 41 39 38 37 36 36 35 34 32 30 28 28 28
4 8 1 3 8 8 2 1 2 2 2 3 2 2 5 8 7 4 5 6 4 3 2 6 10 12 13 13 14 15 19 21 21 21 22 22 23 20 12 7 12 17 22 29 34 35 35 39 40 39 40 39 39 39 38 37 36 34 32 30 30 29 28
2 4 4 1 5 5 2 1 1 1 1 2 2 1 2 5 6 5 5 4 3 4 5 6 8 11 12 12 12 12 16 20 20 21 23 23 24 24 22 13 3 9 15 22 28 31 32 36 38 38 38 39 39 39 39 38 37 36 34 33 32 30 28
0 2 6 5 5 5 2 1 2 2 2 1 1 1 2 1 4 5 6 5 4 3 5 6 8 9 10 11 11 11 15 18 19 21 23 24 25 26 26 23 14 5 9 15 21 26 28 31 35 37 37 37 38 39 40 40 39 37 36 35 34 32 30
4 5 3 4 6 7 6 4 3 2 2 1 4 4 1 1 0 2 4 5 4 3 5 6 9 8 9 12 12 12 14 17 19 21 22 24 25 26 27 27 23 15 9 10 12 17 20 23 30 35 36 35 36 37 38 38 39 39 37 36 35 33 31
4 5 3 3 5 4 5 7 5 3 2 2 2 4 3 2 1 1 2 4 4 3 6 7 8 9 9 11 13 13 14 16 18 20 22 25 28 28 29 30 29 24 16 10 10 12 14 16 20 27 33 36 35 34 33 33 34 35 35 35 35 34 32
1 4 4 2 3 1 2 6 7 5 3 2 2 1 1 2 2 1 2 4 4 3 6 7 8 9 9 11 13 14 14 15 17 19 21 26 32 33 33 34 33 29 23 15 10 8 9 11 12 16 24 32 34 33 32 31 30 31 32 33 35 36 35
3 4 5 3 1 3 3 4 6 8 7 4 1 1 0 2 1 1 2 4 5 5 5 7 8 9 10 11 12 13 15 16 17 18 19 24 31 36 37 37 35 32 28 24 19 14 9 7 9 12 17 24 30 32 32 31 30 29 30 31 32 35 35
3 2 2 2 1 2 2 3 6 8 9 8 2 1 1 2 2 1 1 4 7 7 5 6 7 8 9 11 12 13 14 16 17 18 20 22 27 32 36 36 36 35 33 30 25 21 16 11 8 8 13 18 24 28 29 29 30 29 29 29 29 31 32
2 3 3 2 1 2 1 4 7 7 8 8 3 0 1 2 5 3 4 5 10 8 5 5 5 6 7 9 11 13 14 15 16 17 19 21 24 27 32 34 34 34 34 32 29 25 21 17 12 8 8 12 18 22 25 27 29 30 30 30 30 31 32
6 5 5 2 1 3 3 4 5 6 7 8 5 4 3 1 2 4 3 5 9 7 4 4 4 5 6 8 10 12 13 14 15 16 18 21 24 27 31 32 32 32 32 31 30 28 25 21 16 12 9 6 10 16 21 25 27 29 31 31 31 33 34
6 5 5 3 2 3 1 2 3 4 6 6 5 5 3 3 2 6 6 6 7 6 4 4 4 4 5 7 9 10 11 13 15 16 19 21 24 28 30 30 30 30 29 28 28 27 27 24 20 15 12 8 6 9 14 19 23 26 27 27 30 33 34
6 4 3 3 4 3 2 2 3 3 3 3 2 2 2 2 3 6 7 8 7 6 4 4 4 4 5 5 8 10 13 15 17 17 19 20 22 24 26 28 28 27 27 26 25 24 25 25 23 19 16 12 7 4 8 13 18 22 24 25 27 31 33
4 3 3 3 4 4 2 3 4 2 2 3 2 2 1 0 2 5 9 9 7 4 4 5 5 4 4 6 8 11 13 16 17 18 19 20 20 21 23 25 26 25 24 24 23 22 22 22 22 21 18 16 13 8 2 7 13 18 22 25 27 28 30
3 1 3 4 3 1 3 5 6 5 5 4 4 4 3 1 2 6 8 7 5 6 6 6 5 3 4 5 7 9 11 14 16 18 19 20 20 20 21 23 24 24 24 24 23 22 21 20 19 18 18 17 15 13 8 0 7 13 17 22 26 28 29
3 1 3 4 1 3 4 4 5 5 5 4 4 5 5 3 1 2 3 4 6 8 7 5 4 3 2 3 5 7 9 12 14 16 17 18 19 20 21 22 23 23 23 22 22 21 20 20 18 17 16 15 15 16 15 8 1 7 12 16 20 24 27
3 1 2 2 3 3 3 4 3 2 3 2 1 2 3 2 1 2 5 6 6 6 5 4 3 1 1 0 2 5 8 10 12 14 15 17 18 19 20 21 22 22 22 21 20 20 19 19 18 16 14 12 12 13 15 13 7 2 6 11 15 18 22
2 1 1 3 4 1 3 2 2 1 1 1 2 1 2 2 1 4 7 7 5 4 4 3 2 3 2 3 4 4 7 10 11 12 14 16 18 19 20 21 22 23 23 21 20 19 19 19 18 16 14 11 9 9 12 13 11 7 4 6 10 14 17
1 2 3 3 1 2 1 1 1 1 2 1 2 2 4 4 1 2 5 6 5 4 3 2 2 5 2 5 7 4 6 12 13 12 14 17 18 19 20 22 23 24 24 23 21 19 19 19 19 17 16 13 10 8 7 9 10 9 6 4 7 10 13
1 1 1 0 1 1 3 2 2 2 2 2 0 1 3 4 2 2 3 4 4 3 2 2 5 5 2 6 7 4 4 12 14 14 16 17 18 20 21 23 23 23 23 23 22 20 19 19 19 18 17 16 12 9 6 6 7 7 6 4 5 7 10
1 1 1 1 2 3 4 5 4 2 2 2 1 1 1 4 3 3 4 3 3 3 3 4 7 5 3 4 6 4 6 14 14 16 18 18 19 21 23 24 24 24 23 23 23 23 21 19 18 18 18 17 15 11 8 7 7 6 6 4 4 5 7
2 2 1 2 3 2 3 6 6 4 4 4 3 3 2 4 4 3 3 3 3 3 4 6 7 4 4 1 3 2 13 18 17 18 20 20 21 23 23 24 25 26 25 24 23 24 23 20 18 18 18 17 17 15 12 9 8 7 7 7 5 4 5
2 2 2 2 2 0 3 6 7 6 5 6 4 3 2 5 5 3 3 3 2 2 4 5 5 3 3 4 6 11 18 20 20 21 22 22 24 25 25 25 25 26 27 26 25 24 25 23 20 18 19 18 17 17 16 14 11 10 9 9 8 6 5
2 3 2 2 2 1 4 7 9 8 6 6 3 1 4 8 7 5 5 3 1 1 2 3 4 4 5 9 14 18 18 19 21 23 24 25 25 26 27 27 27 27 27 28 27 26 25 26 24 21 20 19 18 18 17 16 15 14 12 12 12 10 8
1 2 2 3 3 1 6 9 9 8 5 3 1 4 9 10 8 6 6 4 3 4 4 5 6 9 10 12 16 18 19 20 23 25 25 26 27 27 28 28 29 29 29 28 29 28 27 27 26 24 22 21 20 19 18 17 18 17 15 14 15 15 12
2 1 2 2 2 2 10 12 8 5 4 1 5 7 8 9 7 6 7 6 5 5 6 7 9 11 13 14 16 18 18 19 21 24 26 27 28 29 29 29 29 30 31 30 29 29 29 28 27 26 24 23 22 21 19 18 19 20 18 17 17 18 17
3 2 4 2 3 3 13 11 4 4 6 3 3 3 5 7 8 7 6 7 6 7 8 9 10 11 13 15 16 17 19 19 20 22 25 27 28 29 30 31 30 30 32 32 31 30 29 29 29 28 27 25 25 24 22 19 19 21 21 19 19 19 19
4 3 3 1 3 4 15 12 4 6 8 5 5 4 4 6 8 8 7 7 8 8 9 10 11 12 13 15 16 18 20 22 22 24 26 27 28 29 30 31 31 31 31 32 33 32 31 30 30 30 28 27 26 26 24 21 20 21 22 21 21 21 21
3 7 7 6 6 8 15 15 9 7 7 9 8 6 6 6 7 7 8 9 9 9 11 11 11 13 14 15 17 19 21 24 26 27 28 29 29 30 30 30 30 30 31 32 33 33 32 31 31 31 30 29 28 27 25 24 21 21 23 23 23 22 22
3 4 5 8 10 13 15 17 15 13 14 12 9 8 8 8 9 9 9 10 10 11 13 14 14 16 16 17 19 21 23 26 28 30 31 31 31 31 31 31 30 30 30 32 33 33 33 32 32 32 31 30 29 28 26 25 24 22 23 24 24 24 24
5 3 2 4 7 10 13 16 16 16 15 12 10 10 10 9 9 10 10 11 12 13 14 15 16 17 18 19 22 24 25 26 29 32 34 34 34 34 33 32 30 30 30 31 32 33 34 32 32 34 33 32 30 29 27 26 24 24 24 25 25 26 26
7 8 8 8 7 8 13 17 18 18 17 14 12 11 11 10 11 11 11 12 13 14 15 16 17 18 20 21 24 26 27 29 31 34 36 36 36 35 33 29 27 27 29 31 32 33 34 33 32 34 34 33 31 29 28 26 24 25 25 25 26 26 27
6 6 8 9 6 7 10 12 13 14 12 11 11 10 10 11 11 11 12 13 13 14 15 16 17 19 21 23 25 27 29 31 34 36 37 37 33 29 26 25 24 24 26 28 31 34 35 33 33 33 34 35 33 31 29 26 24 24 25 26 27 27 28
8 9 10 10 9 8 8 7 7 8 8 8 9 9 10 10 10 10 12 13 14 15 16 16 18 20 22 24 25 27 30 33 35 35 34 34 29 24 23 23 23 23 24 25 27 31 34 34 33 33 34 35 35 34 31 28 25 24 25 26 28 28 28
12 16 19 16 13 13 13 11 8 7 8 9 9 9 10 10 10 11 13 13 15 16 17 18 19 20 23 25 26 29 31 31 29 28 28 28 26 24 23 23 23 24 25 24 25 28 31 33 34 33 34 36 37 36 33 29 26 24 25 27 28 29 28
18 22 22 17 15 15 15 13 10 9 10 10 10 10 10 10 10 12 13 14 16 17 18 20 20 22 24 26 25 26 27 26 24 25 26 26 25 24 25 25 26 26 25 26 28 29 30 33 34 34 34 36 37 38 36 31 26 25 26 28 28 29 28

ECMWFFLT2_850_spd_072.txt.gz
Wind_Speed
1 1 2 4 6 4 7 10 10 7 4 5 5 6 8 8 8 7 7 6 7 8 8 6 6 7 9 11 13 15 16 16 15 16 16 14 12 10 7 4 6 13 19 22 22 23 24 24 23 23 24 25 26 27 25 23 23 23 23 22 22 21 20
4 1 2 3 4 5 4 8 10 6 1 5 5 4 7 9 8 7 9 10 9 8 7 6 4 5 7 10 13 15 16 17 17 17 17 16 15 13 11 8 5 6 11 17 19 20 22 22 23 24 24 25 25 26 25 23 23 23 24 23 23 22 21
6 3 4 6 5 5 4 3 6 6 5 7 6 5 7 10 8 6 11 12 8 5 4 5 4 5 6 8 10 13 16 17 17 17 17 17 16 15 13 10 6 5 8 13 16 18 19 20 21 23 24 25 25 25 24 23 22 23 23 23 23 23 22
6 5 3 5 7 6 3 3 4 5 5 5 6 7 6 8 9 7 9 11 6 4 4 4 5 6 6 8 9 11 14 16 16 17 17 16 16 16 14 12 11 7 2 7 11 14 15 16 19 19 21 24 23 23 23 21 20 22 23 23 24 25 24
6 3 1 2 1 2 5 7 7 8 6 3 4 7 5 6 8 8 9 9 6 6 4 3 7 7 7 8 9 10 13 15 16 17 17 16 17 17 16 14 14 15 13 7 5 11 11 12 16 17 18 21 21 22 22 19 20 21 21 21 22 23 25
4 4 5 4 5 5 3 2 3 4 6 5 6 8 7 5 6 5 9 8 7 5 1 2 7 8 8 10 10 10 12 14 14 16 17 17 17 17 18 18 17 17 17 14 9 11 10 7 11 15 17 17 18 20 20 19 22 22 19 20 22 22 23
5 7 4 2 3 5 3 3 3 1 3 5 7 8 7 7 4 2 5 7 7 3 1 4 8 9 10 11 12 11 12 13 14 15 16 17 19 19 20 20 21 20 17 15 12 9 9 6 7 11 13 14 16 18 21 22 23 21 20 21 22 22 23
5 5 2 1 2 3 2 3 4 2 2 2 4 4 3 7 6 3 6 7 6 4 5 7 10 12 12 11 12 12 12 12 13 15 16 17 19 22 23 24 24 22 18 15 13 11 9 7 9 9 9 12 16 19 23 24 21 18 18 19 19 20 20
6 6 5 4 3 2 1 4 4 3 3 2 4 4 4 6 3 3 7 6 6 6 7 9 11 12 12 12 13 12 12 12 12 14 15 16 19 22 25 28 28 26 23 19 16 14 11 9 10 11 9 7 12 18 22 23 21 19 18 17 17 18 18
6 5 4 2 3 4 3 4 4 4 4 2 3 3 6 7 2 2 4 6 10 9 10 11 11 11 11 12 13 12 12 13 13 14 15 16 19 22 24 27 30 30 28 25 22 19 15 11 10 11 11 8 3 10 18 21 20 20 21 18 17 18 17
1 3 4 4 2 4 4 4 5 5 5 3 3 4 5 4 4 2 3 12 16 14 12 12 11 10 10 11 11 12 12 12 13 14 15 17 19 21 22 25 28 29 29 27 26 23 20 15 11 9 10 10 6 1 8 16 19 19 18 17 17 17 17
7 7 7 5 3 4 4 4 4 5 5 3 2 0 2 2 3 4 8 15 18 16 14 12 11 10 9 10 10 11 11 12 13 13 15 17 19 20 22 24 26 27 27 26 25 24 22 19 15 10 7 8 8 7 3 4 11 16 15 15 17 18 18
7 6 6 4 3 4 3 3 4 4 4 4 4 6 6 5 0 7 12 15 15 15 14 11 10 9 9 10 9 10 11 12 13 14 15 17 18 20 21 23 24 24 24 24 23 22 21 20 18 15 11 6 6 7 5 2 4 12 16 16 17 18 19
6 5 4 3 3 3 3 3 3 3 3 5 5 6 8 8 9 11 13 15 13 12 11 10 9 8 9 9 9 9 11 12 13 14 16 17 18 19 20 20 21 22 22 22 21 20 19 19 18 17 15 11 7 4 6 7 7 10 15 18 17 16 18
5 3 2 2 1 2 3 4 4 4 4 5 5 5 7 8 10 11 12 13 11 9 10 11 10 8 7 7 8 9 10 12 13 14 15 16 17 18 18 19 19 20 21 20 19 19 18 18 17 16 15 14 12 8 2 6 9 11 14 17 17 14 14
4 4 2 2 2 3 4 5 6 7 6 5 5 5 4 4 9 12 11 10 9 9 11 11 10 9 7 5 6 8 9 11 12 13 15 15 16 17 17 18 18 19 19 20 19 18 17 16 16 14 13 12 12 10 7 2 5 9 12 15 14 14 15
4 5 2 1 3 5 5 5 6 6 6 7 7 6 5 4 6 8 6 6 9 11 12 10 9 9 7 4 4 6 7 9 11 12 13 14 14 15 16 16 17 18 18 19 20 19 17 16 15 14 12 11 11 10 8 5 1 4 9 12 12 13 17
4 6 3 4 6 5 3 6 5 4 4 5 6 7 7 5 2 3 6 9 11 11 10 8 8 6 4 4 4 5 6 8 9 10 11 12 13 13 14 15 16 17 17 18 20 19 18 16 14 13 12 11 10 11 9 7 5 1 4 9 10 11 16
2 5 4 6 5 3 5 6 5 4 3 3 5 7 6 5 5 7 9 10 9 8 7 7 6 4 3 5 6 5 6 7 8 9 10 11 12 12 13 14 15 16 17 18 19 19 18 17 16 14 12 11 10 11 10 9 7 4 1 3 7 10 13
1 4 6 4 3 5 5 5 4 3 3 4 5 6 6 4 4 7 8 8 8 7 6 6 5 3 4 6 6 5 5 6 7 8 9 10 11 11 12 13 14 14 15 16 18 19 18 18 17 17 15 13 11 11 11 10 9 6 4 1 3 7 10
2 4 5 2 3 4 5 5 5 3 2 3 3 3 6 5 3 5 7 7 8 7 6 5 2 1 3 5 6 6 3 6 6 7 8 9 10 11 12 12 13 13 14 16 18 19 18 17 18 18 17 16 15 14 12 11 10 9 7 5 4 4 7
3 4 3 3 4 4 5 7 7 4 4 3 2 3 4 6 4 5 7 8 7 7 6 4 2 2 4 5 6 7 3 4 6 6 7 8 11 12 13 14 14 13 15 18 20 19 17 17 18 18 17 16 17 17 15 13 12 11 11 10 7 5 5
3 4 4 4 4 1 6 9 9 7 4 2 2 4 5 7 7 6 7 8 8 7 5 3 2 4 6 3 6 6 1 6 7 7 7 8 10 11 13 16 15 16 19 22 21 18 17 17 19 20 19 17 17 18 18 16 14 13 14 14 11 8 7
3 4 4 3 0 4 8 9 9 8 4 0 5 6 4 7 9 7 7 8 8 6 4 2 3 4 4 1 6 4 6 9 9 10 10 10 10 10 12 14 17 21 23 22 19 17 17 20 22 22 22 21 19 18 18 18 17 16 16 16 14 12 11
3 3 5 4 1 6 9 10 10 8 4 3 5 3 6 9 10 8 6 6 6 5 3 3 3 3 4 6 7 7 9 10 11 12 12 12 12 12 12 13 17 21 22 22 21 19 19 22 23 23 23 24 23 20 19 19 19 19 19 19 18 16 14
4 3 4 4 1 5 10 11 11 8 4 2 2 6 10 11 9 7 6 5 4 4 4 4 4 4 5 7 8 9 10 11 12 13 13 14 14 14 14 15 16 17 18 21 24 23 22 21 21 21 24 26 26 24 22 20 19 20 21 21 21 21 19
3 3 4 5 2 5 12 13 9 6 5 2 8 9 8 7 6 6 6 5 4 5 5 5 5 6 6 7 8 9 10 11 12 13 13 14 15 16 16 16 15 15 17 21 24 25 25 24 23 23 26 28 28 28 26 23 21 21 22 22 22 23 23
4 3 3 1 2 7 15 11 4 5 5 6 7 6 5 5 6 5 5 6 6 6 6 6 6 7 7 8 8 8 9 10 11 13 14 15 16 18 18 18 17 17 17 19 23 25 25 25 26 27 28 30 31 31 29 27 25 24 23 23 23 24 24
4 4 1 4 6 10 14 7 2 7 8 5 3 3 3 5 6 5 5 6 6 6 7 7 7 7 8 8 8 9 9 10 11 13 15 16 17 18 19 20 20 19 19 19 21 24 25 25 26 28 28 30 33 33 31 29 28 27 26 26 25 25 24
4 6 6 3 4 8 11 6 4 8 8 5 4 4 5 5 6 6 6 6 6 7 7 7 8 8 8 8 9 10 10 11 12 13 15 16 17 18 20 21 21 22 22 22 22 23 24 24 24 26 28 29 32 33 34 32 30 29 29 29 28 27 26
2 4 7 8 8 10 11 10 9 9 7 6 6 6 6 6 6 7 7 7 7 7 8 8 9 10 9 10 11 12 12 13 13 13 14 15 16 18 19 21 22 23 24 24 23 23 24 23 23 24 27 29 31 33 34 34 33 31 30 31 31 30 28
6 4 3 5 6 8 10 11 12 12 11 10 9 9 8 7 7 8 8 8 8 8 9 9 10 10 11 12 13 13 14 15 14 14 15 16 17 19 20 21 22 22 22 23 23 23 24 24 23 24 26 29 30 31 33 34 34 33 31 31 31 31 30
9 8 8 8 7 7 11 15 15 14 13 11 11 11 10 9 9 8 8 9 9 9 9 9 10 12 13 13 14 15 16 16 17 17 18 18 19 20 20 20 20 20 21 22 23 24 25 25 25 26 27 28 29 30 31 33 34 34 33 32 31 31 31
7 7 7 9 7 7 10 13 14 14 14 13 12 12 11 11 10 9 9 10 10 10 10 10 11 13 14 14 15 17 17 18 18 19 20 21 21 21 20 20 20 21 22 23 24 25 26 26 26 27 27 28 28 28 29 30 32 33 33 32 32 32 32
9 8 8 7 8 9 9 7 9 11 12 13 14 13 12 11 10 9 10 10 10 11 11 11 11 13 14 16 16 17 18 19 20 21 21 22 22 21 21 22 22 22 22 23 24 26 26 26 26 27 27 27 28 27 27 28 30 32 31 31 33 32 31
13 14 14 12 11 13 12 9 9 10 11 12 13 13 12 11 10 10 10 10 10 11 11 12 13 14 15 17 17 18 20 20 21 22 23 23 24 24 23 23 23 23 23 23 24 25 25 25 26 26 27 27 28 28 27 26 27 30 31 31 33 33 31
17 18 17 13 12 14 13 11 11 11 11 11 12 12 11 11 10 9 9 9 10 12 13 14 14 15 16 17 18 19 21 21 22 23 24 25 25 25 24 24 23 24 24 24 24 24 25 26 27 28 29 30 29 29 28 27 27 30 32 33 34 35 33

ECMWFFLT2_850_spd_075.txt.gz
Wind_Speed
11 15 13 10 9 6 6 9 11 9 10 9 8 9 10 10 9 9 8 6 8 7 8 9 12 12 10 9 10 10 9 9 9 8 6 5 6 9 9 11 15 17 18 21 23 23 22 23 24 22 22 25 25 24 25 25 24 24 23 22 22 21 20
9 8 8 11 14 11 5 8 10 9 11 10 7 6 9 11 10 9 12 12 9 8 7 8 12 12 11 9 9 9 9 9 8 8 7 5 4 5 6 8 11 12 15 19 21 22 23 23 22 20 23 26 24 22 23 24 24 24 23 23 23 22 22
10 8 7 9 14 16 11 6 6 8 11 9 6 6 8 11 11 9 12 14 10 7 7 10 12 10 10 8 8 8 9 9 8 7 8 8 7 5 5 7 7 3 8 14 18 21 22 22 20 19 20 24 25 23 22 23 25 24 23 23 23 23 23
9 9 10 9 10 15 13 9 8 9 9 8 7 7 8 9 11 9 10 11 6 3 5 9 10 9 9 8 6 7 9 10 10 10 10 12 13 10 7 7 9 9 3 6 13 20 22 22 21 19 18 21 24 23 22 24 24 22 23 23 23 23 23
8 8 8 6 5 9 11 9 8 8 7 7 9 10 9 8 9 8 9 9 5 5 4 7 10 8 7 8 7 7 9 11 11 12 13 14 14 14 12 9 9 11 10 7 4 14 19 20 20 22 22 22 22 22 22 23 23 23 23 22 22 22 21
7 5 4 2 4 4 6 8 9 10 9 8 9 11 11 9 9 8 7 7 7 4 2 6 9 7 7 9 9 9 10 11 12 14 14 15 14 14 12 10 8 10 11 12 11 6 6 8 15 22 24 22 21 24 24 21 22 23 21 19 18 19 18
3 6 5 3 5 7 5 5 7 9 11 11 10 11 10 10 12 8 3 7 6 4 5 8 8 9 10 10 10 10 11 12 13 13 14 15 15 14 13 10 9 9 10 13 14 14 12 10 12 18 20 19 20 24 23 20 20 19 18 17 17 18 18
4 6 2 4 5 6 6 6 6 6 8 10 9 7 6 8 12 9 5 7 5 5 7 10 10 11 12 11 11 11 11 12 12 13 15 15 16 16 15 14 12 12 13 14 14 15 16 14 13 13 11 13 17 20 20 19 19 18 17 16 16 18 18
4 3 4 6 5 6 8 8 5 5 8 9 7 5 5 6 10 11 6 5 6 8 9 10 12 12 11 12 12 11 11 12 12 13 14 14 15 17 17 17 17 17 17 16 16 15 16 16 16 16 13 7 6 12 18 19 17 17 17 14 14 16 16
6 4 4 5 7 8 8 7 4 5 9 10 7 6 6 7 8 7 1 6 9 11 12 12 12 12 11 12 13 12 12 12 12 13 13 14 16 17 18 19 20 21 19 18 17 15 13 14 16 16 14 11 9 9 14 16 14 13 14 13 13 14 14
1 1 3 4 4 10 10 7 5 6 8 8 8 9 8 6 6 3 6 13 15 15 14 13 13 12 11 11 12 12 12 12 13 14 14 15 16 16 17 18 20 21 21 20 19 17 14 12 11 11 11 11 11 10 10 12 11 10 9 10 13 13 13
4 4 4 6 3 5 6 5 5 5 4 6 10 11 6 4 5 4 10 17 18 17 16 15 13 12 11 11 11 11 11 12 13 13 14 15 16 17 17 18 19 20 20 20 19 18 17 13 9 8 8 9 10 10 9 10 11 11 10 10 11 12 15
2 3 3 4 3 2 2 1 2 2 3 7 10 8 5 7 6 6 12 16 16 17 17 16 14 13 12 12 12 11 11 11 12 13 14 15 15 16 17 18 18 18 18 19 18 17 17 15 13 9 6 6 5 6 8 9 10 12 14 14 12 11 13
2 1 1 2 2 1 3 2 1 1 2 2 3 3 3 6 4 12 16 15 14 15 15 15 15 15 14 13 12 11 11 11 12 12 14 14 15 16 16 16 16 16 17 17 17 17 16 16 15 13 10 7 4 2 2 5 8 10 12 14 14 13 12
4 2 2 3 3 4 5 4 3 4 3 2 2 2 1 3 7 14 18 16 13 13 16 17 17 17 15 13 12 10 9 11 12 12 13 14 14 14 15 15 15 15 16 17 17 17 16 16 15 14 13 11 8 5 2 2 5 7 8 8 8 11 13
4 4 4 4 3 5 7 7 7 7 6 5 3 1 1 4 9 14 16 13 10 12 16 17 15 16 15 13 12 10 9 9 11 12 12 13 13 13 14 14 15 15 15 17 17 17 17 16 15 14 14 12 10 9 6 2 2 5 7 5 3 5 9
4 5 4 3 4 7 8 6 7 8 7 4 3 3 2 1 7 10 10 10 10 13 14 13 13 15 14 12 10 9 8 8 9 10 11 11 12 12 12 13 14 14 15 15 16 17 17 16 16 15 14 13 12 12 10 8 4 2 4 7 7 5 5
5 6 3 4 7 7 3 3 3 1 3 4 4 5 5 5 3 3 6 11 14 14 13 13 13 14 13 12 9 6 7 7 8 9 10 10 10 11 11 12 13 13 13 14 15 15 15 15 15 15 14 14 13 12 12 12 10 6 2 5 7 7 8
5 5 5 7 8 4 4 6 6 6 4 3 5 6 6 6 7 10 12 15 16 14 15 14 13 13 13 11 8 6 7 6 7 8 8 9 9 9 10 11 11 12 12 13 15 15 15 15 15 14 14 14 14 13 12 12 12 9 6 4 4 7 9
5 4 6 6 3 4 6 5 3 3 3 4 6 6 4 4 7 10 12 13 13 14 15 15 13 11 12 9 7 6 6 6 6 7 7 8 8 8 9 10 10 10 10 12 14 14 14 15 15 15 15 14 14 14 13 13 12 11 11 10 9 8 7
5 6 7 4 4 4 4 4 4 2 3 5 4 3 5 5 4 7 11 10 10 12 12 11 10 10 11 9 7 6 5 5 5 6 6 6 6 7 8 8 9 9 9 11 13 13 13 13 13 15 16 16 16 15 15 14 14 13 12 12 12 12 9
4 6 6 6 6 6 5 7 7 3 2 1 2 2 5 6 4 6 10 10 10 11 11 10 10 10 9 8 9 9 6 4 4 4 5 5 5 6 7 8 8 8 9 13 14 12 12 11 12 15 17 17 17 16 16 16 16 15 13 12 13 14 12
5 6 7 7 6 3 5 9 8 5 3 0 2 4 7 8 7 7 10 11 12 11 11 10 10 8 7 5 9 13 8 2 3 3 4 4 5 6 6 7 8 8 12 14 13 12 11 12 13 15 16 17 16 16 17 17 16 15 13 13 15 15 14
5 6 6 5 2 3 8 9 7 6 4 2 5 7 6 9 12 10 9 11 11 9 9 8 7 6 3 4 8 9 5 2 2 3 5 7 7 8 8 9 9 10 12 12 11 11 12 13 15 16 15 15 17 18 19 18 16 14 14 16 19 18 17
6 6 7 5 1 6 9 9 9 7 5 4 6 4 5 9 11 10 9 10 10 8 7 6 5 2 5 7 6 4 2 1 2 4 5 6 8 9 11 13 15 14 13 11 11 12 13 14 15 15 14 14 16 19 22 22 20 18 18 20 22 22 20
6 5 6 6 2 6 8 10 10 7 5 3 3 6 9 9 10 9 7 8 9 7 5 4 4 0 4 3 2 1 1 3 3 4 4 5 6 8 10 12 14 15 15 15 15 14 14 14 14 14 14 15 17 20 24 25 24 23 23 23 23 23 23
5 5 7 7 2 6 10 10 8 5 4 2 7 10 10 8 9 8 5 4 6 6 5 3 4 3 2 3 3 3 4 4 4 4 4 5 6 8 9 10 11 12 14 16 18 18 16 16 16 16 16 18 21 23 25 27 28 29 28 27 25 25 25
5 5 4 2 1 8 11 7 2 3 5 7 8 9 9 7 7 7 6 5 5 5 5 4 3 3 3 4 5 5 6 5 5 5 5 5 6 8 9 10 11 12 13 15 17 18 18 17 18 18 19 21 24 27 27 28 29 30 31 31 30 28 27
5 4 1 2 3 8 10 4 2 7 11 10 6 5 7 8 7 5 6 6 7 6 4 4 4 4 4 5 5 5 6 7 7 7 7 8 8 8 8 9 10 12 13 15 17 18 19 19 18 19 20 21 24 26 27 28 29 31 33 34 34 33 31
5 6 4 2 2 6 8 5 5 7 8 7 6 4 4 6 6 6 5 5 6 6 5 4 5 4 4 4 5 5 6 7 8 9 9 10 9 9 9 9 10 12 13 15 16 18 19 19 18 18 19 20 22 25 28 30 31 32 33 34 35 36 35
5 4 5 7 6 6 8 7 7 7 7 5 5 6 6 5 6 6 5 5 5 5 5 5 6 5 4 5 6 6 6 8 9 10 11 11 12 12 12 12 12 12 13 14 15 17 18 19 18 18 19 20 22 25 27 28 30 31 32 34 35 37 37
7 4 1 3 5 7 9 9 8 9 9 8 6 7 7 6 7 7 6 6 6 6 6 7 7 6 6 6 6 6 7 8 8 10 11 12 13 15 15 16 16 15 14 14 14 16 18 19 20 20 21 21 22 23 25 26 27 29 32 34 36 37 37
9 8 6 7 7 8 10 12 12 11 11 10 9 9 8 8 8 8 8 7 7 7 7 7 7 7 7 6 7 7 8 8 9 10 12 13 14 16 17 18 18 17 17 17 17 17 18 18 20 21 22 22 21 22 24 25 25 26 28 30 34 36 36
6 6 5 5 6 7 8 11 12 13 12 12 12 12 11 11 10 10 9 9 9 8 7 7 7 7 7 7 8 8 9 9 10 11 12 14 15 16 17 18 19 19 20 20 19 19 19 18 19 20 22 23 22 22 23 23 24 24 24 25 28 32 34
5 5 6 6 5 6 7 7 9 11 12 13 13 13 13 13 12 11 10 9 9 8 8 8 8 8 8 9 9 10 10 10 11 12 13 14 16 17 18 19 20 21 21 22 22 22 21 20 20 20 20 21 21 21 22 22 23 24 24 25 26 27 29
7 9 11 9 8 10 9 8 9 10 11 12 13 14 15 14 13 12 11 10 9 9 8 8 8 8 9 9 10 11 11 12 12 13 15 16 17 18 19 19 20 21 22 22 23 23 22 21 21 21 21 21 20 20 21 21 22 24 25 26 27 26 26
13 14 14 13 13 13 11 10 12 12 11 12 13 14 15 15 14 13 12 11 10 10 9 10 9 9 10 11 12 12 12 12 13 15 16 17 18 18 19 19 20 21 22 22 23 23 23 23 23 23 24 23 22 22 22 22 24 25 26 28 28 29 28